Regional Weather Roundup
Issued by NWS

Home | Current Version | Previous Version | Text Only | Print | Product List | Glossary Off
Versions: 1 2 3 4 5 6 7 8 9 10 11 12 13 14 15 16 17 18 19 20 21 22 23 24 25 26 27 28 29 30 31 32 33 34 35 36 37 38 39 40 41 42 43 44 45 46 47 48 49 50

000
ASUS43 KOAX 240302
RWRNE

WEATHER ROUNDUP FOR NEBRASKA
NATIONAL WEATHER SERVICE OMAHA NE
1000 PM CDT THU OCT 23 2014

NOTES: SATELLITE DATA IS BEING USED TO AUGMENT CLOUD COVER ABOVE
       12000 FEET.
       "FAIR" INDICATES FEW OR NO CLOUDS BELOW 12,000 FEET WITH NO
       SIGNIFICANT WEATHER AND/OR OBSTRUCTIONS TO VISIBILITY.

  * THESE STATIONS DO NOT REPORT WEATHER SUCH AS RAIN...SNOW OR FOG.

NEZ001>004-019>022-054>056-240400-
NEBRASKA PANHANDLE

CITY           SKY/WX    TMP DP  RH WIND       PRES   REMARKS
SCOTTSBLUFF    PTCLDY    49  35  58 E5        30.03R
ALLIANCE       PTCLDY    47  32  56 W10       30.00R
CHADRON        PTCLDY    44  36  73 SW9       29.94F
KIMBALL        PTCLDY    49  32  51 SW7       30.06S
SIDNEY         PTCLDY    47  36  65 SW8       30.06R
$$

NEZ057>060-069>072-079>082-240400-
SOUTHWEST NEBRASKA

CITY           SKY/WX    TMP DP  RH WIND       PRES   REMARKS
NORTH PLATTE   MOCLDY    60  48  64 S9        29.99S
IMPERIAL       PTCLDY    58  49  72 SW8       30.02S
LEXINGTON      CLEAR     60  55  85 S14       30.00S
MCCOOK         CLEAR     60  55  83 S7        30.02S
OGALLALA       PTCLDY    53  37  55 CALM      30.00S
$$

NEZ005>010-023>029-035>040-094-240400-
NORTH CENTRAL NEBRASKA

CITY           SKY/WX    TMP DP  RH WIND       PRES   REMARKS
VALENTINE      MOCLDY    52  37  56 SW7       29.92R
AINSWORTH      MOCLDY    55  44  64 S9        29.92S
BROKEN BOW     PTCLDY    57  53  86 SE3       29.98F
O`NEILL        CLOUDY    59  55  85 S9        29.93F
ORD            MOCLDY    55  52  89 S7        29.97S
THEDFORD       PTCLDY    59  44  58 S10       29.97R
$$

NEZ041-046>049-061>064-073>077-083>087-240400-
SOUTH CENTRAL NEBRASKA

CITY           SKY/WX    TMP DP  RH WIND       PRES   REMARKS
GRAND ISLAND   MOCLDY    58  55  90 S9        30.01S
AURORA         CLOUDY    58  57  96 SW8       30.01S
HASTINGS       MOCLDY    56  53  90 S7        30.01F FOG
HEBRON         FAIR      54  52  91 CALM      30.03S
HOLDREGE       CLEAR     56  54  94 CALM      30.02S FOG
KEARNEY *      PTCLDY    52  50  93 S9        30.02S
YORK           CLOUDY    57  55  94 S7        30.01F
$$

NEZ011>018-030>034-042>045-240400-
NORTHEAST NEBRASKA

CITY           SKY/WX    TMP DP  RH WIND       PRES   REMARKS
NORFOLK        MOCLDY    59  54  83 S9        29.98S
ALBION         CLOUDY    55  52  88 S5        29.99S
BLAIR          CLEAR     58  50  74 S7        30.01S
COLUMBUS *     CLOUDY    52  46  82 E5        30.02S
FREMONT        MOCLDY    58  47  67 CALM      30.01S
TEKAMAH        PTCLDY    51  47  86 S6        30.00S
WAYNE          PTCLDY    55  47  77 S7        29.99S
$$

NEZ050>053-065>068-078-088>093-240400-
SOUTHEAST NEBRASKA

CITY           SKY/WX    TMP DP  RH WIND       PRES   REMARKS
LINCOLN        MOCLDY    60  50  69 S3        30.03R
OMAHA EPPLEY   MOCLDY    57  50  77 CALM      30.02S
BEATRICE       MOCLDY    54  51  89 CALM      30.03S
FALLS CITY     PTCLDY    61  57  87 S7        30.04S
NEBRASKA CITY  PTCLDY    55  46  71 S6        30.04R
PLATTSMOUTH    FAIR      59  46  60 SE6       30.03R
$$

NEZ044-045-051>053-067-240400-
OMAHA AREA

CITY           SKY/WX    TMP DP  RH WIND       PRES   REMARKS
OMAHA EPPLEY   MOCLDY    57  50  77 CALM      30.02S
BLAIR          CLEAR     58  50  74 S7        30.01S
FREMONT        MOCLDY    58  47  67 CALM      30.01S
OFFUTT AFB     CLEAR     51  51 100 CALM      30.01S
PLATTSMOUTH    FAIR      59  46  60 SE6       30.03R
WAHOO          FAIR      54  46  74 S6        30.01S
$$



USA.gov is the U.S. government's official web portal to all federal, state and local government web resources and services.